Starlink 30483

operational
NORAD ID: 57914 Int'l Des: 2023-147 Owner: SPXS Country: US Constellation: starlink
LEOCIRCULAR

Starlink 30483について

説明を読み込み中...

リアルタイム位置

3D地球を読み込み中...

次回通過

高度履歴

Altitude vs Time

uPlot chart will show altitude changes over time

軌道要素

1 57914U 23147B 25306.34641681 .00003941 00000-0 15269-3 0 9995
2 57914 43.0006 178.7941 0000961 295.1237 64.9514 15.27569801118837
Epoch: Nov 2, 2025 • Age: 38 hours

現在のステータス

高度 482.8 km
速度 7.63 km/s
衛星直下点 3.92°N, 38.92°W
打ち上げ日 Sep 24, 2023
運用期間 2.1 years
タイプ internet

技術仕様

分類 Payload
質量 730.00 kg
乾燥質量 700.00 kg
総質量 730.00 kg
長さ 0.30 m
直径 4.10 m
スパン 29.00 m
形状 Box + pan
製造者 SPXS
バスタイプ Starlink V2M
フェーズステータス In Orbit
所有者/国 SPXS/US

大規模コンステレーション

Loading constellations...